User: anonymous   Login
Location: Newark
(47.3150°N, 5.1150°E)
Time: 13:53:43
(UTC+00:00)
Language:

UKube-1 - Orbit

View from above orbital plane
View from above orbital plane
View from above satellite
View from above satellite

Ground track
Ground track

The orbit data is extracted from the following two-line orbital elements,

1 40074U 14037F   19348.09512887  .00000340  00000-0  47954-4 0  9995
2 40074  98.4487 160.3841 0005124  15.5739 344.5639 14.84155003294114
Epoch (UTC): 14 December 2019 02:16:59
Eccentricity: 0.0005124
inclination: 98.4487°
perigee height: 612 km
apogee height: 620 km
right ascension of ascending node: 160.3841°
argument of perigee: 15.5739°
revolutions per day: 14.84155003
mean anomaly at epoch: 344.5639°
orbit number at epoch: 29411

The dashed part of the orbit path shows where the satellite is in the earth's shadow,  

DLR